"Time","Temp","Dewpoint","Humidity","Pressure","Direction","Speed","Gust","Precip","PrecipRate"
"00:04:59","62.3","56.7","82","30.04","94","2.5","8.4","0.00","0.00"
"00:09:58","62.2","56.7","82.2","30.04","85","1.9","6","0.00","0.00"
"00:14:58","62.1","56.6","82.3","30.04","91","2","6","0.00","0.00"
"00:19:57","62.1","56.5","82","30.04","110","1.6","4.8","0.00","0.00"
"00:24:56","62.1","56.5","82","30.04","126","3.1","8.4","0.00","0.00"
"00:29:59","62","56.5","82.1","30.04","121","1.2","6.9","0.00","0.00"
"00:34:57","62","56.7","82.8","30.04","119","2","5.8","0.00","0.00"
"00:39:58","62","56.8","83","30.04","128","1.5","7.2","0.00","0.00"
"00:44:58","61.8","56.6","83","30.04","124","0.8","2.4","0.00","0.00"
"00:49:58","61.8","56.6","83","30.04","130","1.2","4.8","0.00","0.00"
"00:54:57","61.7","56.5","83","30.04","135","2.3","7.2","0.00","0.00"
"00:59:56","61.7","56.5","83","30.04","137","1.8","6","0.00","0.00"
"01:04:56","61.7","56.5","83","30.03","137","1.6","5.8","0.00","0.00"
"01:09:56","61.6","56.7","84.2","30.03","133","1.9","6","0.00","0.00"
"01:14:56","61.4","56.8","85","30.03","125","1.7","4.6","0.00","0.00"
"01:19:56","61.2","56.7","85","30.03","124","1.4","4.8","0.00","0.00"
"01:24:58","61.1","56.8","85.7","30.03","125","1.5","6","0.00","0.00"
"01:29:57","61","56.7","85.6","30.04","125","1.5","5.8","0.00","0.00"
"01:34:57","61","56.8","86","30.04","138","0.5","2.4","0.00","0.00"
"01:39:58","61","56.8","86","30.04","141","1.5","4.8","0.00","0.00"
"01:44:58","61","56.7","85.7","30.04","122","1.6","4.8","0.00","0.00"
"01:49:57","60.9","56.7","85.9","30.03","121","1.2","3.6","0.00","0.00"
"01:54:56","60.9","56.4","85","30.03","121","0.9","3.6","0.00","0.00"
"01:59:59","60.9","56.6","85.7","30.03","121","0.7","2.4","0.00","0.00"
"02:04:59","60.9","56.7","86","30.02","127","1.7","6","0.00","0.00"
"02:09:59","60.8","56.5","85.7","30.02","140","2.7","8.4","0.00","0.00"
"02:14:59","60.7","56.5","86","30.03","128","1.7","7.2","0.00","0.00"
"02:19:59","60.5","56.3","86","30.03","130","2.2","6.9","0.00","0.00"
"02:24:58","60.5","56.3","86","30.03","129","1.6","6","0.00","0.00"
"02:29:57","60.4","56.2","86","30.03","134","2","6","0.00","0.00"
"02:34:57","60.4","56.2","86","30.03","155","0.6","3.6","0.00","0.00"
"02:39:57","60.3","56.1","86","30.03","141","1.6","4.8","0.00","0.00"
"02:44:56","60.3","56.1","86","30.03","133","1.2","4.8","0.00","0.00"
"02:49:56","60.3","56.2","86.2","30.03","129","1","3.6","0.00","0.00"
"02:54:59","60.3","56.1","86","30.03","130","0.5","3.5","0.00","0.00"
"02:59:58","60.3","56.3","86.7","30.03","130","0.2","2.4","0.00","0.00"
"03:04:59","60.3","56.1","86","30.03","127","0.5","3.6","0.00","0.00"
"03:09:59","60.3","56.1","86","30.03","127","0.3","1.2","0.00","0.00"
"03:14:59","60.3","56.1","86","30.03","121","0.7","2.4","0.00","0.00"
"03:19:58","60.4","56.2","86","30.03","121","0.4","2.4","0.00","0.00"
"03:24:57","60.4","56.2","86","30.03","122","0.8","3.6","0.00","0.00"
"03:29:56","60.3","56.1","86","30.03","136","1.1","2.4","0.00","0.00"
"03:34:56","60.3","55.9","85.4","30.03","137","1.5","3.6","0.00","0.00"
"03:39:59","60.2","55.8","85.4","30.03","134","1.9","6","0.00","0.00"
"03:44:59","60.2","55.8","85.2","30.03","136","0.5","3.6","0.00","0.00"
"03:49:57","60.2","55.7","85","30.03","134","0.6","3.5","0.00","0.00"
"03:54:58","60.1","55.6","85","30.03","134","0.5","3.6","0.00","0.00"
"03:59:57","60.1","55.6","85","30.03","134","0","0","0.00","0.00"
"04:04:58","60.1","55.6","85","30.03","133","0.9","3.6","0.00","0.00"
"04:09:57","60.1","55.4","84.6","30.03","119","1.5","4.8","0.00","0.00"
"04:14:57","60.1","55.2","84","30.03","125","1","3.6","0.00","0.00"
"04:19:57","60.1","55.2","84","30.03","129","0.9","6","0.00","0.00"
"04:24:56","60","55.1","83.8","30.03","128","1.4","7.2","0.00","0.00"
"04:29:59","60","55.2","84","30.03","129","0.6","2.4","0.00","0.00"
"04:34:58","60","55.1","83.7","30.03","128","0.6","2.4","0.00","0.00"
"04:39:58","60","54.9","83.1","30.03","140","1.4","6","0.00","0.00"
"04:44:57","60","54.8","83","30.04","125","1","3.6","0.00","0.00"
"04:49:57","60","54.8","83","30.04","126","0.6","3.6","0.00","0.00"
"04:54:57","60","54.7","82.6","30.04","125","0.6","2.4","0.00","0.00"
"04:59:56","60","54.8","83","30.04","125","0.2","1.2","0.00","0.00"
"05:04:56","60","54.7","82.8","30.04","125","0.6","4.8","0.00","0.00"
"05:09:59","59.9","54.6","82.7","30.04","120","1.3","4.6","0.00","0.00"
"05:14:59","59.9","54.7","83","30.04","118","0.5","4.8","0.00","0.00"
"05:19:58","59.8","54.6","82.8","30.03","115","1.5","4.6","0.00","0.00"
"05:24:57","59.8","54.6","83","30.03","127","0.8","6","0.00","0.00"
"05:29:57","59.7","54.5","83","30.04","112","0.1","1.2","0.00","0.00"
"05:34:57","59.7","54.5","83","30.04","112","0.3","1.2","0.00","0.00"
"05:39:56","59.6","54.4","83","30.04","84","0.3","2.4","0.00","0.00"
"05:44:56","59.6","54.4","83","30.05","66","0.7","4.8","0.00","0.00"
"05:49:59","59.7","54.4","82.5","30.05","120","1","4.8","0.00","0.00"
"05:54:59","59.7","54.4","82.8","30.05","122","1.1","3.6","0.00","0.00"
"05:59:58","59.7","54.2","82.2","30.05","123","0.7","2.4","0.00","0.00"
"06:04:59","59.7","54.3","82.3","30.05","123","0.1","1.2","0.00","0.00"
"06:09:56","59.7","54.5","83","30.05","123","0","0","0.00","0.00"
"06:14:56","59.6","54.4","83","30.05","125","0.5","3.6","0.00","0.00"
"06:19:59","59.6","54.5","83.2","30.05","140","1.4","3.6","0.00","0.00"
"06:24:58","59.6","54.9","84.4","30.05","145","1.2","3.6","0.00","0.00"
"06:29:58","59.5","55","85","30.05","145","0.7","2.4","0.00","0.00"
"06:34:57","59.5","55.3","85.9","30.05","145","0.7","2.4","0.00","0.00"
"06:39:56","59.5","55.3","86","30.05","145","0.5","2.4","0.00","0.00"
"06:44:56","59.4","55.2","86","30.05","150","0.7","2.4","0.00","0.00"
"06:49:56","59.4","55.5","86.9","30.05","259","0.1","1.2","0.00","0.00"
"06:54:59","59.3","55.4","87","30.05","259","0","1.2","0.00","0.00"
"06:59:58","59.4","55.5","87","30.05","259","0.1","1.2","0.00","0.00"
"07:04:58","59.3","55.4","87","30.05","344","0","0","0.00","0.00"
"07:09:58","59.3","55.4","87","30.05","342","0","0","0.00","0.00"
"07:14:58","59.3","55.6","87.7","30.06","335","0.3","2.4","0.00","0.00"
"07:19:57","59.3","55.5","87.5","30.06","334","1.3","3.6","0.00","0.00"
"07:24:56","59.2","55.6","88","30.06","248","1.3","3.6","0.00","0.00"
"07:29:59","59.1","55.3","87.1","30.06","225","1","3.6","0.00","0.00"
"07:34:58","59.1","55.5","87.7","30.06","225","0.6","2.4","0.00","0.00"
"07:39:57","59.2","55.6","88","30.06","225","0.4","2.3","0.00","0.00"
"07:44:57","59.3","55.7","88","30.06","225","0.4","1.2","0.00","0.00"
"07:49:56","59.3","55.7","88","30.06","225","0.2","2.4","0.00","0.00"
"07:54:59","59.4","55.8","88","30.06","174","0.8","3.6","0.00","0.00"
"07:59:56","59.5","55.9","88","30.06","165","0.7","3.6","0.00","0.00"
"08:04:56","59.6","55.8","87.4","30.06","165","0.3","2.4","0.00","0.00"
"08:09:56","59.7","56.1","87.7","30.06","165","0.2","1.2","0.00","0.00"
"08:14:59","60","56.3","87.7","30.07","240","0.2","1.2","0.00","0.00"
"08:19:59","60.2","56.4","87.4","30.07","229","0.5","2.4","0.00","0.00"
"08:24:58","60.2","56","86","30.07","229","0.4","2.4","0.00","0.00"
"08:29:57","60.3","55.8","85.2","30.07","229","0.1","1.2","0.00","0.00"
"08:34:57","60.4","55.1","82.6","30.07","229","0","1.2","0.00","0.00"
"08:39:57","60.7","54","78.5","30.07","25","0.3","4.8","0.00","0.00"
"08:44:56","61.2","54.2","77.8","30.07","28","0.4","2.4","0.00","0.00"
"08:49:59","61.6","54.4","77.2","30.07","53","0.3","7.2","0.00","0.00"
"08:54:57","61.9","54","75.3","30.07","134","2","6.9","0.00","0.00"
"08:59:57","62","53.9","74.6","30.07","120","2.4","4.8","0.00","0.00"
"09:04:56","62.1","54","74.8","30.07","132","2.1","7.2","0.00","0.00"
"09:09:56","62.2","53.9","74.3","30.07","135","0.8","2.4","0.00","0.00"
"09:14:56","62.3","54.1","74.7","30.07","140","0.8","3.6","0.00","0.00"
"09:19:59","62.4","54.1","74.3","30.07","132","1","3.6","0.00","0.00"
"09:24:58","62.4","54","74","30.07","132","1.6","3.6","0.00","0.00"
"09:29:58","62.4","53.8","73.5","30.07","131","0.7","3.6","0.00","0.00"
"09:34:57","62.6","54.2","74","30.06","79","0.5","3.6","0.00","0.00"
"09:39:56","63","53.9","72.3","30.06","78","0.8","3.6","0.00","0.00"
"09:44:59","63.2","53.9","71.9","30.06","113","1.5","4.8","0.00","0.00"
"09:49:57","63.7","54.7","72.4","30.06","125","1.2","4.8","0.00","0.00"
"09:54:56","64.3","54.2","69.7","30.06","126","1.4","6","0.00","0.00"
"09:59:59","64.6","54.3","69.4","30.06","128","1.6","4.8","0.00","0.00"
"10:04:59","64.9","54.4","68.8","30.05","125","1.5","6","0.00","0.00"
"10:09:58","65.2","53.3","65.4","30.05","158","2.4","10.8","0.00","0.00"
"10:14:57","65.2","53.7","66.4","30.05","131","3.1","9.6","0.00","0.00"
"10:19:59","65.6","54.2","66.7","30.05","124","2.1","4.8","0.00","0.00"
"10:24:58","65.8","54.3","66.6","30.05","118","1.1","2.4","0.00","0.00"
"10:29:57","65.4","54.4","67.6","30.05","27","1.1","4.8","0.00","0.00"
"10:34:59","65.8","54.8","67.7","30.05","310","0.9","6","0.00","0.00"
"10:39:58","66","54.8","67.3","30.05","42","2.2","6","0.00","0.00"
"10:44:57","66.4","54.6","65.8","30.05","44","1.2","8.4","0.00","0.00"
"10:49:59","65.5","54.3","67","30.05","126","1.4","8.1","0.00","0.00"
"10:54:58","65.2","54.2","67.5","30.05","79","0.3","3.6","0.00","0.00"
"10:59:56","65.4","54.6","68.2","30.05","2","1.3","3.6","0.00","0.00"
"11:04:56","65","54.2","67.9","30.05","47","1.1","3.6","0.00","0.00"
"11:09:56","64.8","54.6","69.4","30.05","107","0.9","4.8","0.00","0.00"
"11:14:59","64.7","54.1","68.4","30.05","126","1.6","4.8","0.00","0.00"
"11:19:58","65","54.8","69.5","30.05","126","0.7","2.4","0.00","0.00"
"11:24:57","65.8","55.4","69.2","30.05","125","1.1","3.6","0.00","0.00"
"11:29:59","66","55","67.9","30.05","135","1.1","3.5","0.00","0.00"
"11:34:56","66.3","55.8","68.9","30.05","222","0.5","3.6","0.00","0.00"
"11:39:56","66.6","55.4","67.2","30.05","244","0.8","3.6","0.00","0.00"
"11:44:59","67","55.3","66","30.05","350","1","3.6","0.00","0.00"
"11:49:58","66.6","55","66.4","30.04","349","0.5","4.8","0.00","0.00"
"11:54:56","67.3","55.9","66.8","30.04","344","3.1","7.2","0.00","0.00"
"11:59:59","67.5","55.9","66.3","30.04","340","2.5","7.2","0.00","0.00"
"12:04:59","67.5","55.8","66","30.03","342","2.9","8.4","0.00","0.00"
"12:09:58","67.2","55.5","66.2","30.03","335","3","6","0.00","0.00"
"12:14:57","67.6","56.7","68","30.03","2","2.2","6","0.00","0.00"
"12:19:56","68","56.9","67.7","30.03","37","0.7","3.5","0.00","0.00"
"12:24:59","67.3","55.7","66.6","30.03","111","0.7","3.6","0.00","0.00"
"12:29:58","67.2","56.3","68","30.03","107","0.4","2.4","0.00","0.00"
"12:34:57","67.4","56","66.8","30.03","3","1.6","6","0.00","0.00"
"12:39:56","67.6","56.2","66.9","30.03","19","0.6","4.6","0.00","0.00"
"12:44:59","67.6","56.4","67.3","30.03","26","1.9","6","0.00","0.00"
"12:49:59","68","56.5","66.7","30.03","352","1.2","5.8","0.00","0.00"
"12:54:56","67.3","55.6","66.1","30.03","54","1.1","2.4","0.00","0.00"
"12:59:59","67.5","55.9","66.5","30.03","341","1.2","4.8","0.00","0.00"
"13:04:58","68.4","56.8","66.6","30.02","327","2.7","6","0.00","0.00"
"13:09:58","68.1","56.1","65.5","30.02","327","1.8","4.8","0.00","0.00"
"13:14:57","68.1","56","65.2","30.02","327","2.1","7.2","0.00","0.00"
"13:19:56","67.7","55.6","65.3","30.02","337","2.1","7.2","0.00","0.00"
"13:24:59","67.4","55.6","65.8","30.02","358","0.9","3.6","0.00","0.00"
"13:29:58","68.1","56.4","66.4","30.02","355","0.6","2.4","0.00","0.00"
"13:34:57","68.6","56.9","66.4","30.02","355","0.7","2.4","0.00","0.00"
"13:39:56","68.6","56.9","66.3","30.02","355","0.8","2.4","0.00","0.00"
"13:44:59","68.7","56.6","65.4","30.02","355","0.9","2.4","0.00","0.00"
"13:49:57","69","56.7","64.9","30.01","349","1.3","3.6","0.00","0.00"
"13:54:59","69","56.7","64.8","30.01","334","2","3.6","0.00","0.00"
"13:59:58","69.6","57.3","65","30.01","266","1.6","4.8","0.00","0.00"
"14:04:58","69.6","57.2","64.8","30.01","171","2.2","8.4","0.00","0.00"
"14:09:57","69.4","57","64.7","30.01","310","2.1","4.8","0.00","0.00"
"14:14:56","69.2","56.6","64.2","30.01","189","1.8","6","0.00","0.00"
"14:19:59","69","56.3","63.9","30.00","265","1.5","7.2","0.00","0.00"
"14:24:58","68.8","56.4","64.7","30.00","292","1.9","4.8","0.00","0.00"
"14:29:56","69.7","57.9","66.1","30.00","338","1.1","3.6","0.00","0.00"
"14:34:59","71.8","58.4","62.6","29.99","334","1.8","4.8","0.00","0.00"
"14:39:58","71","57","61.3","29.99","252","2.1","4.8","0.00","0.00"
"14:44:57","70","56.3","61.9","29.99","207","0.6","3.6","0.00","0.00"
"14:49:55","69.8","56.1","61.9","29.99","208","1.2","3.6","0.00","0.00"
"14:54:58","70.9","58","63.8","29.99","218","2.2","8.4","0.00","0.00"
"14:59:57","72.6","58.2","60.5","29.99","336","3.4","7.2","0.00","0.00"
"15:04:57","72.5","57.5","59.2","29.99","325","1.5","4.8","0.00","0.00"
"15:09:56","72.3","57.4","59.6","29.99","347","2","6","0.00","0.00"
"15:14:59","72","57.4","60.1","29.99","336","2.8","8.4","0.00","0.00"
"15:19:57","72.3","58.4","61.8","29.98","259","2.7","6","0.00","0.00"
"15:24:56","72.9","58.6","60.9","29.98","242","2.7","6","0.00","0.00"
"15:29:58","73.8","59.5","61.1","29.98","304","1.9","6","0.00","0.00"
"15:34:57","74.6","59.2","58.9","29.97","275","2.8","7.2","0.00","0.00"
"15:39:56","74.6","58.7","57.7","29.97","342","2.8","6","0.00","0.00"
"15:44:59","73.3","57.7","58.1","29.97","244","3.8","7.2","0.00","0.00"
"15:49:58","73.3","58.8","60.4","29.97","277","2.6","6.9","0.00","0.00"
"15:54:56","74","59.7","61","29.97","244","3.5","6","0.00","0.00"
"15:59:58","73.8","57.9","57.6","29.97","245","3.3","6","0.00","0.00"
"16:04:58","73.7","57.8","57.6","29.97","228","4.5","7.2","0.00","0.00"
"16:09:57","74.1","59.1","59.4","29.97","190","2.4","6.9","0.00","0.00"
"16:14:56","74.2","58.9","58.8","29.97","244","3.5","8.4","0.00","0.00"
"16:19:58","74","59","59.6","29.96","210","4","12","0.00","0.00"
"16:24:57","74.3","59","58.9","29.96","223","3.2","8.4","0.00","0.00"
"16:29:59","74.2","57.4","56","29.96","295","2.1","4.8","0.00","0.00"
"16:34:58","74.1","58.8","59","29.96","228","2.5","6","0.00","0.00"
"16:39:57","74.7","58.9","58","29.96","238","2.9","6","0.00","0.00"
"16:44:56","74.7","57.6","55.4","29.96","322","3.4","7.2","0.00","0.00"
"16:49:59","74.4","58.5","57.6","29.95","333","1.1","4.8","0.00","0.00"
"16:54:57","74.9","59","57.8","29.95","257","2.5","7.2","0.00","0.00"
"16:59:56","74.9","59.1","58.1","29.95","212","2.9","7.2","0.00","0.00"
"17:04:59","74.7","58.7","57.7","29.94","240","2.4","4.8","0.00","0.00"
"17:09:58","74.4","58.6","58","29.94","297","2.2","4.8","0.00","0.00"
"17:14:57","74","57.7","56.9","29.94","330","2.8","6","0.00","0.00"
"17:19:56","73.9","58.7","59","29.94","312","1.5","5.8","0.00","0.00"
"17:24:58","74.4","59","58.7","29.94","207","3.2","7.2","0.00","0.00"
"17:29:56","74.7","57.6","55.3","29.94","255","2.7","7.2","0.00","0.00"
"17:34:59","75.2","57.8","54.8","29.93","335","1.4","6.9","0.00","0.00"
"17:39:58","75.6","58.3","55.1","29.93","253","1.7","4.8","0.00","0.00"
"17:44:57","75.5","58.1","54.8","29.93","203","2","4.8","0.00","0.00"
"17:49:56","75.3","58.5","56","29.93","216","3.1","6","0.00","0.00"
"17:54:59","75.2","58.8","56.8","29.93","191","3.3","6","0.00","0.00"
"17:59:57","75.2","58.6","56.5","29.93","210","2.4","7.2","0.00","0.00"
"18:04:57","74.9","58.4","56.5","29.93","189","2.8","6.9","0.00","0.00"
"18:09:56","74.5","58.4","57.2","29.93","203","3.4","8.4","0.00","0.00"
"18:14:59","74.2","58.2","57.5","29.93","233","1.8","7.2","0.00","0.00"
"18:19:57","74.1","58.2","57.7","29.92","232","2.5","6","0.00","0.00"
"18:24:56","73.8","57.8","57.5","29.92","277","2.3","6","0.00","0.00"
"18:29:59","73.4","57.9","58.4","29.93","223","2.9","6","0.00","0.00"
"18:34:58","73.2","58","59","29.93","198","2.6","7.2","0.00","0.00"
"18:39:57","73.1","58.1","59.5","29.93","233","1.9","4.8","0.00","0.00"
"18:44:55","73","57.7","58.7","29.93","330","2.1","4.8","0.00","0.00"
"18:49:58","73","58.2","59.9","29.93","252","2.1","6","0.00","0.00"
"18:54:57","72.8","57.5","58.9","29.93","296","2.6","6","0.00","0.00"
"18:59:57","72.6","57.7","59.6","29.93","273","2","4.6","0.00","0.00"
"19:04:59","72.3","57.6","60","29.93","238","2.3","6","0.00","0.00"
"19:09:58","72.1","57.6","60.3","29.93","233","1.8","8.4","0.00","0.00"
"19:14:57","71.9","57.6","60.7","29.93","226","2.8","8.1","0.00","0.00"
"19:19:56","71.7","57.5","61.1","29.93","231","2.9","6","0.00","0.00"
"19:24:58","71.5","57.8","62","29.93","223","1.9","6","0.00","0.00"
"19:29:57","71.3","57.6","62.1","29.93","227","1.3","3.6","0.00","0.00"
"19:34:56","71.1","57.6","62.4","29.93","222","1.5","6","0.00","0.00"
"19:39:59","70.9","58","63.9","29.93","219","1.9","5.8","0.00","0.00"
"19:44:58","70.7","58.1","64.5","29.93","213","2.2","6","0.00","0.00"
"19:49:57","70.4","58.1","65","29.93","209","1.3","3.5","0.00","0.00"
"19:54:56","70.2","58.1","65.4","29.93","209","1.5","4.8","0.00","0.00"
"19:59:59","70","58.4","66.7","29.93","236","1.8","6","0.00","0.00"
"20:04:59","69.7","58.3","67","29.93","244","1.5","3.6","0.00","0.00"
"20:09:58","69.5","58.2","67.2","29.93","265","1.7","3.6","0.00","0.00"
"20:14:57","69.4","58.2","67.5","29.93","256","1.1","3.6","0.00","0.00"
"20:19:57","69.2","58.1","67.7","29.93","279","1.2","4.8","0.00","0.00"
"20:24:56","69.1","58","67.8","29.93","233","1","4.8","0.00","0.00"
"20:29:59","69","58","68","29.93","227","0.5","2.4","0.00","0.00"
"20:34:58","68.8","57.9","68.4","29.93","227","0.3","2.4","0.00","0.00"
"20:39:58","68.6","57.7","68.3","29.93","227","0.7","2.4","0.00","0.00"
"20:44:58","68.5","57.9","69","29.93","207","0.2","1.2","0.00","0.00"
"20:49:57","68.2","57.9","69.7","29.93","199","0.8","3.6","0.00","0.00"
"20:54:56","68.1","57.7","69.5","29.93","212","0.5","4.8","0.00","0.00"
"20:59:56","67.9","57.5","69.3","29.93","9","0.5","3.6","0.00","0.00"
"21:04:56","67.8","57.6","69.8","29.93","9","0.4","2.4","0.00","0.00"
"21:09:59","67.5","57.6","70.4","29.93","9","0.1","1.2","0.00","0.00"
"21:14:59","67.2","57.5","70.8","29.94","9","0.2","2.4","0.00","0.00"
"21:19:58","66.9","57.4","71.5","29.94","9","0.7","2.4","0.00","0.00"
"21:24:58","66.7","57.4","72","29.94","9","0.2","2.3","0.00","0.00"
"21:29:57","66.4","57.4","72.8","29.94","9","0","0","0.00","0.00"
"21:34:56","65.9","57.4","74","29.94","9","0.5","2.4","0.00","0.00"
"21:39:56","65.7","57.2","74.1","29.94","9","0","1.2","0.00","0.00"
"21:44:59","65.3","57.2","75","29.95","9","0","0","0.00","0.00"
"21:49:59","64.8","57.1","75.9","29.95","9","0","0","0.00","0.00"
"21:54:58","64.2","56.9","77.4","29.95","9","0","0","0.00","0.00"
"21:59:57","63.5","56.8","78.7","29.96","9","0","0","0.00","0.00"
"22:04:57","63","56.6","79.6","29.96","9","0","0","0.00","0.00"
"22:09:57","62.6","56.4","80.3","29.96","9","0","0","0.00","0.00"
"22:14:57","62.3","56.4","81","29.96","9","0","0","0.00","0.00"
"22:19:56","62","56.2","81.6","29.96","9","0","0","0.00","0.00"
"22:24:56","61.7","56.1","82","29.96","9","0","0","0.00","0.00"
"22:29:59","61.4","56.1","82.7","29.96","9","0","0","0.00","0.00"
"22:34:58","61.1","56","83.2","29.96","9","0","0","0.00","0.00"
"22:39:58","60.9","56","84","29.96","9","0","0","0.00","0.00"
"22:44:57","60.6","55.7","84","29.96","9","0","0","0.00","0.00"
"22:49:57","60.3","55.6","84.4","29.96","9","0","0","0.00","0.00"
"22:54:56","60.1","55.6","85","29.96","9","0","0","0.00","0.00"
"22:59:59","59.8","55.5","85.5","29.96","9","0","0","0.00","0.00"
"23:04:59","59.5","55.3","86","29.96","9","0","0","0.00","0.00"
"23:09:59","59.1","55.2","86.8","29.96","9","0","0","0.00","0.00"
"23:14:59","58.8","55.1","87.6","29.96","9","0","0","0.00","0.00"
"23:19:58","58.4","54.9","88.1","29.96","9","0","0","0.00","0.00"
"23:24:57","58.1","54.9","89","29.96","9","0","0","0.00","0.00"
"23:29:57","57.8","54.6","89","29.96","9","0","0","0.00","0.00"
"23:34:56","57.5","54.6","89.8","29.96","9","0","0","0.00","0.00"
"23:39:59","57.3","54.5","90.2","29.96","9","0","0","0.00","0.00"
"23:44:59","57.1","54.5","91","29.96","9","0","0","0.00","0.00"
"23:49:56","56.9","54.3","91","29.95","9","0","0","0.00","0.00"
"23:54:59","56.8","54.5","91.9","29.95","9","0","0","0.00","0.00"
